{"data":{"norad_id":58936,"intl_designator":"2024-027F","name":"STARLINK-31383","alt_names":[],"object_type":"PAYLOAD","status":"ACTIVE","operator":null,"country":"US","launch_date":"2024-02-10","launch_site_code":"AFWTR","launch_vehicle":null,"mission":null,"orbit_class":"UNKNOWN","rcs_meters":null,"size_class":null,"mass_kg":null,"dimensions":null,"purposes":["comms"],"wikipedia_slug":null,"has_3d_model":false,"image_url":null,"decayed_at":null,"tle_current":{"epoch":"2026-05-25T04:03:49.000896Z","epoch_age_seconds":64014,"freshness":"FRESH","line1":"1 58936U 24027F   26145.16931714  .00000429  00000+0  26617-4 0  9996","line2":"2 58936  53.1618 314.6714 0001140  95.3815 264.7316 15.30193889129031","mean_motion":15.30193889,"eccentricity":0.000114,"inclination_deg":53.1618,"raan_deg":314.6714,"arg_perigee_deg":95.3815,"mean_anomaly_deg":264.7316,"bstar":2.6617e-5,"rev_number":12903,"period_min":94.10572152664,"perigee_km":474.45203160853,"apogee_km":476.01460004054,"semimajor_km":6853.3703158245,"source":"CELESTRAK","updated_at":"2026-05-25T13:38:18.789071Z"}}}